STARLINK-32736

Last updated on Wed Jan 29 2025 00:02:04 GMT+0000 (Coordinated Universal Time)

1 62443U 24251M 25028.50002315 .00083503 00000+0 20789-2 0 9992 2 62443 53.1597 66.6091 0001039 60.8020 242.1080 15.39559467 5699
UTC large
Height (km)
Speed (km/s)
/
Latitude / Longitude
Inclination (degrees)
Orbital Period (minutes)
Azimuth
Elevation
Range (km)
Doppler Factor

Next 0 passes for location: London (51.5072 / 0.1276)

Sorry there are no passes over London.